Flag for Turkmenistan Weather past 2 weeks in Ashgabat, Turkmenistan

Now
102 °F

Sunny.


Feels Like: 96 °F
Forecast: 80 / 101 °F
Wind: 13 mph from Northwest

Location: Ashgabat

Current Time: Aug 21, 2014 at 1:54:44 PM

Latest Report: Aug 21, 2014 at 1:00 PM


Visibility: N/A

Pressure: 29.80 "Hg

Humidity: 7%

Dew point: 28 °F

Location of AshgabatLocation

Historic Weather in Ashgabat — Graph

°F

Ashgabat temperature yesterday

Maximum temperature yesterday: 106 °F (at 5:00 PM)
Minimum temperature yesterday: 77 °F (at 6:00 AM)
Average temperature yesterday: 92 °F

Past Weeks' High & Low Weather Summary

 TemperatureHumidityPressure
High108 °F (Aug 7, 2:30 PM)55% (Aug 12, 7:00 AM)30.01 "Hg (Aug 12, 7:00 AM)
Low70 °F (Aug 16, 4:00 AM)6% (Aug 6, 1:30 PM)29.56 "Hg (Aug 6, 4:00 PM)
Average92 °F18%29.76 "Hg
* Reported Aug 6 12:00 Noon — Aug 21 12:30 PM, Ashgabat, Weather by CustomWeather, © 2014

Note: Actual official high and low records may vary slightly from our data, if they occured in-between our weather recording intervals... More about our weather records

Advertising

Ashgabat weather history for previous 24 hours

 ConditionsComfort  
Time TempWeatherWind HumidityBarometerVisibility
12:30 PM
Aug 21
100 °FSunny.15 mph8%29.83 "HgN/A
12:00 PM99 °FSunny.13 mph9%29.83 "HgN/A
11:00 AM97 °FSunny.13 mph10%29.83 "HgN/A
10:00 AM95 °FSunny.15 mph10%29.83 "HgN/A
9:00 AM91 °FSunny.10 mph11%29.83 "HgN/A
8:00 AM82 °FSunny.3 mph17%29.83 "HgN/A
7:00 AM77 °FClear.1 mph22%29.83 "HgN/A
6:00 AM77 °FClear.3 mph22%29.83 "Hg4 mi
5:00 AM77 °FClear.6 mph22%29.83 "HgN/A
4:00 AM77 °FClear.3 mph24%29.83 "Hg5 mi
3:00 AM82 °FClear.3 mph17%29.80 "HgN/A
2:00 AM82 °FClear.3 mph17%29.83 "Hg2 mi
1:00 AM82 °FClear.3 mph19%29.83 "Hg6 mi
12:00 AM84 °FClear.3 mph19%29.83 "Hg1 mi
11:00 PM
Aug 20
86 °FClear.1 mph17%29.83 "HgN/A
10:00 PM86 °FClear.6 mph22%29.83 "HgN/A
9:00 PM91 °FClear.6 mph14%29.83 "HgN/A
8:00 PM99 °FSunny.6 mph9%29.83 "Hg6 mi
7:00 PM104 °FSunny.1 mph6%29.83 "HgN/A
6:30 PM104 °FSunny.1 mph6%29.80 "HgN/A
6:00 PM104 °FSunny.6 mph6%29.83 "HgN/A
5:30 PM104 °FSunny.6 mph6%29.83 "HgN/A
5:00 PM106 °FSunny.3 mph6%29.83 "HgN/A
4:30 PM104 °FSunny.6 mph6%29.83 "HgN/A
4:00 PM104 °FSunny.6 mph6%29.83 "HgN/A
3:30 PM104 °FSunny.8 mph6%29.83 "HgN/A
3:00 PM104 °FSunny.6 mph6%29.83 "HgN/A
2:00 PM102 °FSunny.3 mph7%29.86 "HgN/A
1:00 PM102 °FSunny.6 mph7%29.89 "HgN/A
Weather by CustomWeather, © 2014

See weather overviewHow to use our weather pages